OPS 4682 DEB, 18670

Orbit data source: Space-Track

OPS 4682 DEB, 18670 is space debris in LEO originally from a launch on Sat, 03 Apr 1965 UTC launched from the Air Force Western Test Range (AFWTR). Debris objects in space refer to the collection of defunct objects orbiting the Earth. Examples of debris include non-operational satellites, rocket bodies, and fragments generated from explosions, collisions, or faulty payload assembly.

Loading next visibility...
Identifier
18670, 1965-027AG
Orbit
LEO
Last TLE update
1 day ago
Origin
Manufacturer
Unknown
Mission
Spacecraft
Bus & Motor
Unknown
Mass
Unknown
Launch date (UTC)
1965-04-03 (60 years ago)
Launch vehicle
Unknown
Launch site
Air Force Western Test Range (AFWTR)
Object type
Payload
Rocket body
Debris
Shape & HBR
Unknown
Radar Cross Section
Small (<0.1 m²)

Expand to show TLE details & history

TLE from 1 day ago
0 OPS 4682 DEB
1 18670U 65027AG  25127.86410445 -.00000148  00000-0 -53919-3 0  9996
2 18670  90.2399 347.4582 0025170 120.6736 239.6869 12.96921956610223
Epoch: 2025-05-07T20:44Z
Definitive object data (Epoch: 2025-05-07T20:44:18.624Z)
Latitude
-0.00008°
Longitude
170.43776°
Altitude
1,286.809 km
Speed
7.208 km/s
True Right ascension
23h 09m 49s
True Declination
0° 00' 00"
Sunlit
Object was in daylight at TLE epoch
Visualization TLE readout
Latitude
46.59575°
Longitude
-9.27865°
Altitude
1,262.9 km
Speed
7.237 km/s
Apparent Right ascension
07h 17m 46s
Apparent Declination
17° 01' 44"
Sunlit
Object is in daylight
Visualization observer readout
Local Sidereal Time
14:53:57
Azimuth
298.525° NW
Elevation
-6.367°
Doppler factor
1
Orbital elements
Apogee altitude
1,290.556 km
Perigee altitude
1,252.048 km
Semi-major axis
7,649.439 km
Eccentricity
0.002517
Inclination
90.2399°
RAAN
347.4582°
Arg. of periapsis
120.6736°
True anomaly
239.4383°
Mean anomaly
239.6869°
Eccentric anomaly
239.56256°
Mean motion
3.24413 °/min
BSTAR
-0.00053919
Orbital period
110.97 mins
Loading maneuver chart data...
Loading SW <> Apogee altitude chart data...
Loading historical data...
Loading historical data...
Loading historical data...
Loading historical data...
Loading historical data...
Loading historical data...
Loading historical data...

OPS 4682 DEB Visibility forecast

Observer location: undefined°, undefined°

Span
Click to sort rows by Start time (UTC) header in descending order
Start Az.
Max El. time (UTC)
Max El. Az.
Max El.
End time (UTC)
End Az.
11 mins2025-05-09 13:36:04.501Z124.275° SE2025-05-09 13:41:04.501Z78.845° E24.683°2025-05-09 13:47:04.501Z22.082° NNE
13 mins2025-05-09 15:26:04.501Z199.097° SSW2025-05-09 15:32:04.501Z281.164° WNW39.361°2025-05-09 15:39:04.501Z348.883° N
8 mins2025-05-10 01:14:04.501Z45.431° ENE2025-05-10 01:17:04.501Z72.244° E17.362°2025-05-10 01:22:04.501Z115.88° SE
13 mins2025-05-10 03:03:04.501Z358.645° N2025-05-10 03:09:04.501Z276.736° WNW44.356°2025-05-10 03:16:04.501Z191.094° SSW
4 mins2025-05-10 04:57:04.501Z306.281° NW2025-05-10 04:58:04.501Z297.962° NW12.483°2025-05-10 05:01:04.501Z273.361° WNW
|